Location: Wiler
(46.4041°N, 7.7840°E)
Time: 18:20:58
(UTC+00:00)

COSMOS 2455 - Pass Details

Date: 09 April 2020
Orbit: 899 x 910 km, 67.1° (Epoch: 04 June)

Event Time Altitude Azimuth Distance (km) Brightness Sun altitude
Rises 20:01:41 0° 323° (NW) 3,545 7.3 -18.6°
Reaches altitude 10° 20:04:15 10° 319° (NW) 2,601 6.4 -18.9°
Maximum altitude 20:10:04 52° 245° (WSW) 1,117 3.4 -19.8°
Enters shadow 20:13:54 21° 177° (S) 1,907 4.2 -20.3°
